Regional Weather Roundup
Issued by NWS

Home | Current Version | Previous Version | Text Only | Print | Product List | Glossary Off
Versions: 1 2 3 4 5 6 7 8 9 10 11 12 13 14 15 16 17 18 19 20 21 22 23 24 25 26 27 28 29 30 31 32 33 34 35 36 37 38 39 40 41 42 43 44 45 46 47 48 49 50

002
ASUS45 KBOU 261407
RWRCO

WEATHER ROUNDUP FOR COLORADO
NATIONAL WEATHER SERVICE DENVER/BOULDER CO
800 AM MDT MON JUN 26 2017

NOTE: "FAIR" INDICATES FEW OR NO CLOUDS BELOW 12000 FEET WITH NO
SIGNIFICANT WEATHER AND/OR OBSTRUCTIONS TO VISIBILITY.

COZ001>005-013-030-031-261500-
...NORTHWEST COLORADO...

CITY           SKY/WX    TMP DP  RH WIND       PRES   REMARKS
CRAIG          FAIR      59  36  42 NE7       30.32F
HAYDEN         FAIR      55  30  38 E12       30.35S
MEEKER         FAIR      59  33  37 NE5       30.33F
RABBIT EARS PA FAIR      52  28  40 S5        30.60S
STEAMBOAT SPGS FAIR      51  34  52 CALM      30.38S
WALDEN         FAIR      50  32  50 CALM      30.48S
$$

COZ006>008-011-261500-
...WEST CENTRAL VALLEYS...

CITY           SKY/WX    TMP DP  RH WIND       PRES   REMARKS
GRAND JUNCTION FAIR      72  35  25 S9        30.20R
MONTROSE       FAIR      65  35  33 SE5       30.30R
EAGLE          SUNNY     55  32  41 CALM      30.43S
RIFLE          FAIR      63  34  33 E3        30.29S
DELTA          FAIR      69  30  23 SE5       30.25F
NUCLA          FAIR      64  30  27 SE3       30.31R
$$

COZ017>023-064>068-261500-
...SOUTHWEST COLORADO...

CITY           SKY/WX    TMP DP  RH WIND       PRES   REMARKS
DURANGO        FAIR      61  40  45 N3        30.36S
CORTEZ         FAIR      63  37  38 CALM      30.29R
PAGOSA SPRINGS FAIR      59  40  48 CALM      30.44S
TELLURIDE      FAIR      59  29  31 E3        30.51S
WOLF CREEK PAS FAIR      50  37  62 CALM      30.75R
$$

COZ009-010-012-014-032>034-037-058>063-261500-
...CENTRAL COLORADO...

CITY           SKY/WX    TMP DP  RH WIND       PRES   REMARKS
ASPEN          FAIR      56  33  42 E5        30.42F
BUENA VISTA    FAIR      58  46  65 CALM      30.48F
COPPER MTN     FAIR      50  34  53 S5        30.71R
BERTHOUD PASS  FAIR      43  30  61 E3        30.73R
COTTONWOOD PAS FAIR      55  46  71 N3        30.59R
GUNNISON       FAIR      51  35  54 CALM      30.47S
KREMMLING      NOT AVBL
LEADVILLE      FAIR      49  41  74 CALM      30.58S
MONARCH PASS   FAIR      46  37  71 S3        30.81R
SALIDA         FAIR      61  53  75 CALM      30.53S
SUNLIGHT       FAIR      52  27  37 CALM      30.64S
WILKERSON PASS FOG       45  43  93 W3        30.69S VSB 1/4
$$

COZ069>075-261500-
...SAN LUIS VALLEY/SANGRE DE CRISTO MOUNTAINS...

CITY           SKY/WX    TMP DP  RH WIND       PRES   REMARKS
ALAMOSA        FAIR      58  47  66 SW9       30.44R
DEL NORTE      FAIR      57  40  52 W6        30.48R
LA VETA PASS   FAIR      48  45  87 MISG      30.70R
SAGUACHE       FAIR      61  43  51 NW6       30.48R
$$

COZ035-036-038>040-261500-
...NORTHERN COLORADO FRONT RANGE...

CITY           SKY/WX    TMP DP  RH WIND       PRES   REMARKS
DENVER INTL AP FAIR      64  53  67 W6        30.28R
DMNS CITY PARK   N/A     64  53  68 N10       30.28S
AURORA         MOSUNNY   64  53  67 W7        30.29F
FRONT RANGE AP FAIR      66  55  68 W7        30.29S
ERIE MUNI ARPT FAIR      60  55  82 N3        30.28S
BOULDER MUN AP FAIR      61  50  67 N3        30.29S
CENTENNIAL     FAIR      67  53  61 W5        30.30S
BROOMFIELD     FAIR      61  52  72 N8        30.31R
FORT COLLINS   FAIR      61  51  70 N7        30.28F
LONGMONT       FAIR      65  54  65 N3        30.29S
$$

COZ041-046-047-076>085-087-088-261500-
...PIKES PEAK/PALMER DIVIDE AND SOUTHERN FOOTHILLS...

CITY           SKY/WX    TMP DP  RH WIND       PRES   REMARKS
COLO. SPRINGS  CLOUDY    59  59 100 VRB6      30.37F FOG
A. F. ACADEMY  PTSUNNY   60  59  99 SE7       30.37S
SCHRIEVER AFB  PTSUNNY   57  57 100 SW9       30.37F FOG
CHEYENNE MTN   PTSUNNY   57  57 100 E6        30.34F
ELLICOTT       CLOUDY   N/A N/A N/A SW7       30.35F
FALCON           N/A     57  56  95 SW10G16   30.41S FOG
FORT CARSON    CLOUDY    60  59  97 SE8       30.34F
LIMON          FAIR      63  58  83 SW9       30.30F
MONUMENT HILL  FAIR      61  52  72 SW13      30.39S
CANON CITY     CLOUDY    64  63  94 SW3       30.33F
WALSENBURG     CLOUDY    63  61  94 CALM      30.37S
TRINIDAD       FAIR      63  55  75 W10       30.35F
$$

COZ042>045-048>051-090-091-261500-
...NORTHEAST COLORADO...

CITY           SKY/WX    TMP DP  RH WIND       PRES   REMARKS
GREELEY ARPT   FAIR      61  55  81 N3        30.27F
AKRON          FAIR      66  57  72 SW13      30.26S
BURLINGTON     FAIR      63  58  83 SW12      30.26F
WRAY           CLOUDY    63  61  94 W7        30.24S
YUMA           FAIR      63  54  72 SW6       30.25S
STERLING       FAIR      61  55  82 CALM      30.24S
HOLYOKE        NOT AVBL
FORT MORGAN    FAIR      64  56  75 SW5       30.26F
$$

COZ086-089-092>099-261500-
...SOUTHEAST COLORADO...

CITY           SKY/WX    TMP DP  RH WIND       PRES   REMARKS
PUEBLO         CLOUDY    64  59  83 SW3       30.30S
LA JUNTA       PTSUNNY   64  57  78 W3        30.27F
LAMAR          FAIR      66  57  72 CALM      30.24S
SPRINGFIELD      N/A     64  58  80 SW10      30.27F
$$




USA.gov is the U.S. government's official web portal to all federal, state and local government web resources and services.